Weather History for PAAK - January, 2014

Change the Weather History Date:

Friday, January 10, 2014

  Actual Average (PADK) Record (PADK)
Temperature  
Mean Temperature 36 °F -  
Max Temperature 39 °F 37 °F 47 °F (1962)
Min Temperature 32 °F 30 °F 12 °F (2002)
Degree Days  
Heating Degree Days 30    
Moisture  
Dew Point 30 °F    
Average Humidity 74    
Maximum Humidity 87    
Minimum Humidity 61    
Precipitation  
Precipitation 0.00 in - - ()
Sea Level Pressure  
Sea Level Pressure 28.97 in    
Wind  
Wind Speed 11 mph (South)    
Max Wind Speed 36 mph    
Max Gust Speed 47 mph    
Visibility 9 miles    
Events      
Averages and records for this station are not official NWS values.
T = Trace of Precipitation, MM = Missing Value Source: NWS Daily Summary

Daily Weather History Graph

Daily Weather History Graph

Search for Another Location

Airport or City:

Trip Planner

Search our weather history database for the weather conditions in past years. The results will help you decide how hot, cold, wet, or windy it might be!

Date:

Astronomy

Jan. 10, 2014 Rise Set
Actual Time 9:42 AM HST 5:46 PM HST
Civil Twilight 9:02 AM HST 6:26 PM HST
Nautical Twilight 8:19 AM HST 7:09 PM HST
Astronomical Twilight 7:38 AM HST 7:50 PM HST
Moon 2:09 PM HST (1/10) 4:52 AM HST (1/10)
Length of Visible Light 9h 24m
Length of Day
8h 04m
Waxing Gibbous, 76% of the Moon is Illuminated
Jan 10
Waxing Gibbous
Jan 15
Full
Jan 23
Last Quarter
Jan 30
New
Feb 6
First Quarter

Hourly Weather History & Observations

Time (HST) Temp. Windchill Dew Point Humidity Pressure Visibility Wind Dir Wind Speed Gust Speed Precip Events Conditions
12:16 AM 35.6 °F 30.7 °F 28.4 °F 75% 29.26 in 10.0 mi SSW 5.8 mph - N/A   Mostly Cloudy
12:36 AM 35.6 °F 30.7 °F 28.4 °F 75% 29.25 in 10.0 mi South 5.8 mph - N/A   Mostly Cloudy
12:56 AM 33.8 °F 29.6 °F 24.8 °F 70% 29.23 in 10.0 mi SSW 4.6 mph - N/A   Partly Cloudy
1:16 AM 33.8 °F 29.6 °F 24.8 °F 70% 29.22 in 10.0 mi SSW 4.6 mph - N/A   Clear
1:36 AM 33.8 °F - 24.8 °F 70% 29.22 in 10.0 mi Calm Calm - N/A   Mostly Cloudy
1:56 AM 32.0 °F - 24.8 °F 75% 29.21 in 10.0 mi Calm Calm - N/A   Overcast
2:16 AM 33.8 °F - 24.8 °F 70% 29.20 in 10.0 mi Calm Calm - N/A   Overcast
2:36 AM 33.8 °F - 26.6 °F 75% 29.18 in 10.0 mi Calm Calm - N/A   Overcast
2:56 AM 33.8 °F 27.7 °F 26.6 °F 75% 29.17 in 10.0 mi East 6.9 mph - N/A   Overcast
3:16 AM 37.4 °F 32.8 °F 26.6 °F 65% 29.17 in 10.0 mi East 5.8 mph - N/A   Overcast
3:36 AM 35.6 °F 30.7 °F 26.6 °F 70% 29.16 in 10.0 mi South 5.8 mph - N/A   Overcast
3:56 AM 35.6 °F 30.7 °F 26.6 °F 70% 29.14 in 10.0 mi South 5.8 mph - N/A   Overcast
4:16 AM 37.4 °F 29.3 °F 28.4 °F 70% 29.13 in 10.0 mi ESE 12.7 mph - N/A   Overcast
4:36 AM 37.4 °F 29.8 °F 28.4 °F 70% 29.12 in 10.0 mi East 11.5 mph - N/A   Overcast
4:56 AM 37.4 °F 29.3 °F 28.4 °F 70% 29.11 in 10.0 mi ESE 12.7 mph - N/A   Overcast
5:16 AM 37.4 °F 28.2 °F 28.4 °F 70% 29.09 in 10.0 mi ESE 16.1 mph - N/A   Overcast
5:36 AM 37.4 °F 28.2 °F 28.4 °F 70% 29.08 in 10.0 mi ESE 16.1 mph 20.7 mph N/A   Overcast
5:56 AM 37.4 °F 28.5 °F 30.2 °F 75% 29.06 in 10.0 mi East 15.0 mph - N/A   Overcast
6:16 AM 35.6 °F 25.9 °F 30.2 °F 81% 29.06 in 6.0 mi East 16.1 mph - N/A   Overcast
6:36 AM 35.6 °F 25.2 °F 30.2 °F 81% 29.04 in 5.0 mi East 18.4 mph - N/A   Overcast
6:56 AM 35.6 °F 25.2 °F 30.2 °F 81% 29.03 in 5.0 mi East 18.4 mph - N/A   Overcast
7:16 AM 35.6 °F 25.2 °F 32.0 °F 87% 29.01 in 9.0 mi East 18.4 mph - N/A   Overcast
7:36 AM 35.6 °F 26.2 °F 32.0 °F 87% 29.00 in 5.0 mi East 15.0 mph - N/A   Overcast
7:56 AM 37.4 °F 28.9 °F 33.8 °F 87% 29.00 in 3.0 mi East 13.8 mph - N/A   Overcast
8:16 AM 37.4 °F 29.3 °F 33.8 °F 87% 29.00 in 2.5 mi ENE 12.7 mph - N/A   Overcast
8:36 AM 37.4 °F 29.8 °F 33.8 °F 87% 28.99 in 2.5 mi East 11.5 mph - N/A   Overcast
8:56 AM 37.4 °F 31.4 °F 33.8 °F 87% 28.98 in 2.5 mi East 8.1 mph - N/A   Overcast
9:16 AM 37.4 °F 34.9 °F 33.8 °F 87% 28.98 in 5.0 mi ENE 3.5 mph - N/A   Overcast
9:36 AM 37.4 °F - 33.8 °F 87% 28.98 in 10.0 mi Calm Calm - N/A   Overcast
9:56 AM 39.2 °F 32.5 °F 35.6 °F 87% 28.98 in 7.0 mi SW 10.4 mph 16.1 mph N/A   Mostly Cloudy
10:16 AM 39.2 °F 33.6 °F 33.8 °F 81% 28.98 in 10.0 mi SSW 8.1 mph - N/A   Overcast
10:36 AM 39.2 °F 32.5 °F 33.8 °F 81% 28.98 in 10.0 mi SSW 10.4 mph - N/A   Mostly Cloudy
10:56 AM 39.2 °F 31.6 °F 33.8 °F 81% 28.98 in 9.0 mi SW 12.7 mph 17.3 mph N/A   Mostly Cloudy
11:16 AM 39.2 °F 34.2 °F 32.0 °F 75% 28.98 in 10.0 mi SSW 6.9 mph - N/A   Mostly Cloudy
11:36 AM 39.2 °F 31.2 °F 32.0 °F 75% 28.98 in 10.0 mi SSW 13.8 mph 20.7 mph N/A   Mostly Cloudy
11:56 AM 39.2 °F 31.2 °F 32.0 °F 75% 28.98 in 10.0 mi SW 13.8 mph - N/A   Mostly Cloudy
12:16 PM 39.2 °F 30.8 °F 33.8 °F 81% 28.97 in 10.0 mi SSW 15.0 mph - N/A   Overcast
12:36 PM 39.2 °F 33.6 °F 32.0 °F 75% 28.97 in 10.0 mi SSW 8.1 mph - N/A   Overcast
12:56 PM 39.2 °F 34.2 °F 30.2 °F 70% 28.96 in 10.0 mi SW 6.9 mph - N/A   Overcast
1:16 PM 39.2 °F 32.5 °F 32.0 °F 75% 28.95 in 10.0 mi SSW 10.4 mph - N/A   Mostly Cloudy
1:36 PM 39.2 °F 30.2 °F 30.2 °F 70% 28.95 in 10.0 mi SSW 17.3 mph 26.5 mph N/A   Overcast
1:56 PM 37.4 °F 28.5 °F 30.2 °F 75% 28.93 in 10.0 mi SSW 15.0 mph 20.7 mph N/A   Mostly Cloudy
2:16 PM 39.2 °F 30.5 °F 30.2 °F 70% 28.94 in 10.0 mi SW 16.1 mph 21.9 mph N/A   Mostly Cloudy
2:36 PM 39.2 °F 30.2 °F 28.4 °F 65% 28.93 in 10.0 mi SW 17.3 mph 23.0 mph N/A   Mostly Cloudy
2:56 PM 39.2 °F 31.6 °F 30.2 °F 70% 28.92 in 10.0 mi SW 12.7 mph - N/A   Mostly Cloudy
3:16 PM 39.2 °F 32.5 °F 30.2 °F 70% 28.91 in 10.0 mi SW 10.4 mph 20.7 mph N/A   Overcast
3:36 PM 39.2 °F 31.6 °F 28.4 °F 65% 28.89 in 10.0 mi SSW 12.7 mph - N/A   Mostly Cloudy
3:56 PM 39.2 °F 31.2 °F 28.4 °F 65% 28.90 in 10.0 mi SW 13.8 mph 23.0 mph N/A   Overcast
4:16 PM 39.2 °F 33.6 °F 30.2 °F 70% 28.89 in 10.0 mi SW 8.1 mph - N/A   Mostly Cloudy
4:36 PM 37.4 °F 28.9 °F 28.4 °F 70% 28.89 in 10.0 mi SSW 13.8 mph 26.5 mph N/A   Scattered Clouds
4:56 PM 39.2 °F 30.8 °F 30.2 °F 70% 28.88 in 10.0 mi SSW 15.0 mph 20.7 mph N/A   Mostly Cloudy
5:16 PM 39.2 °F 31.2 °F 30.2 °F 70% 28.87 in 10.0 mi SSW 13.8 mph 18.4 mph N/A   Overcast
5:36 PM 37.4 °F 28.9 °F 30.2 °F 75% 28.87 in 10.0 mi SSW 13.8 mph 25.3 mph N/A   Mostly Cloudy
5:56 PM 37.4 °F 33.8 °F 28.4 °F 70% 28.87 in 10.0 mi SSW 4.6 mph - N/A   Mostly Cloudy
6:16 PM 39.2 °F 29.8 °F 28.4 °F 65% 28.87 in 10.0 mi SSW 18.4 mph 23.0 mph N/A   Mostly Cloudy
6:36 PM 39.2 °F 31.2 °F 28.4 °F 65% 28.86 in 10.0 mi SSW 13.8 mph 25.3 mph N/A   Overcast
6:56 PM 39.2 °F 30.8 °F 26.6 °F 61% 28.86 in 10.0 mi SSW 15.0 mph 31.1 mph N/A   Mostly Cloudy
7:16 PM 39.2 °F 29.6 °F 26.6 °F 61% 28.85 in 10.0 mi SSW 19.6 mph 31.1 mph N/A   Mostly Cloudy
7:36 PM 39.2 °F 28.7 °F 28.4 °F 65% 28.84 in 10.0 mi SSW 23.0 mph 28.8 mph N/A   Mostly Cloudy
7:56 PM 37.4 °F 27.8 °F 28.4 °F 70% 28.83 in 10.0 mi SSW 17.3 mph 24.2 mph N/A   Overcast
8:16 PM 39.2 °F 28.5 °F 28.4 °F 65% 28.83 in 10.0 mi South 24.2 mph 33.4 mph N/A   Overcast
8:36 PM 37.4 °F 26.9 °F 28.4 °F 70% 28.82 in 10.0 mi SSW 20.7 mph 31.1 mph N/A   Mostly Cloudy
8:56 PM 37.4 °F 26.4 °F 28.4 °F 70% 28.82 in 9.0 mi SSW 23.0 mph 33.4 mph N/A   Mostly Cloudy
9:16 PM 37.4 °F 27.2 °F 30.2 °F 75% 28.81 in 10.0 mi South 19.6 mph 32.2 mph N/A   Overcast
9:36 PM 37.4 °F 26.9 °F 30.2 °F 75% 28.81 in 9.0 mi South 20.7 mph 35.7 mph N/A   Overcast
9:56 PM 35.6 °F 23.7 °F 30.2 °F 81% 28.81 in 4.0 mi South 24.2 mph 33.4 mph N/A   Overcast
10:16 PM 37.4 °F 25.4 °F 30.2 °F 75% 28.79 in 10.0 mi South 27.6 mph 40.3 mph N/A   Overcast
10:36 PM 37.4 °F 25.9 °F 30.2 °F 75% 28.78 in 8.0 mi South 25.3 mph 40.3 mph N/A   Mostly Cloudy
10:56 PM 37.4 °F 26.4 °F 30.2 °F 75% 28.77 in 10.0 mi South 23.0 mph 39.1 mph N/A   Overcast
11:16 PM 37.4 °F 24.0 °F 30.2 °F 75% 28.77 in 5.0 mi South 35.7 mph 47.2 mph N/A   Overcast
11:36 PM 37.4 °F 24.8 °F 30.2 °F 75% 28.75 in 10.0 mi South 31.1 mph 39.1 mph N/A   Overcast
11:56 PM 37.4 °F 25.0 °F 30.2 °F 75% 28.75 in 6.0 mi SSW 29.9 mph 41.4 mph N/A   Overcast